CZ-6A DEB

Satellite information

Favourite Embed

Satellite Type and Status

DEBRISIN ORBIT

Key statistics

Satellite CZ-6A DEB at a glance.

Uptime

1128

Days in orbit

Revolutions

≈ 14.3

Per day

Orbit

SSO

Sun Synchronous Orbit

Inclination

98.7

Latest

Satellite identification and parameters

Extended collection of information and parameters for CZ-6A DEB.

Object identification

Identified? True

Debris? True

Object name: CZ-6A DEB

International designator: 2022-151KF

Object number (NORAD): 54527

Object ID (CCSDS): 54527

Country: PEOPLES REPUBLIC OF CHINA (PRC)

Current information (Y/N): Y

RCS size: MEDIUM

Orbital parameters

Period: 100.616 minutes

Inclination: 98.7345 deg

SMA: 7165.891 km

Apoapsis: 815.26 km

Periapsis: 760.251 km

RAAN: 6.5871 deg

Eccentricy: 0.00383822

Argument of periapsis: 153.676 deg

Mean anomaly: 206.6383 deg

Mean motion: 14.31190669 rev/day

Mean motion (dot): 0.00005695 rev/day2

B* drag term: 0.0021544999 1/REarth

Two-line elements (TLE)

Creation date: Dec. 12, 2025, 10:14 a.m.

Reference frame: TEME

Reference center: EARTH

Epoch: Dec. 12, 2025, 7:11 a.m. UTC

TLE line 0: 0 CZ-6A DEB

TLE line 1: 1 54527U 22151KF 25346.29965675 .00005695 00000-0 21545-2 0 9997

TLE line 2: 2 54527 98.7345 6.5871 0038382 153.6760 206.6383 14.31190669160207

Live tracking on map

Real-time ground track for satellite CZ-6A DEB.

In-orbit conjunctions

A list of the most updated potential collisions computed for object CZ-6A DEB.

Target Orbit TCA Probability of collision Miss distance Type
NOAA 16 DEB SSO 2025-06-01 12:30:17 0.0001461472 165.0 (m) DEBRIS
DELTA 1 DEB * SSO 2024-12-03 17:18:33 0.0005065937 34.0 (m) DEBRIS
COSMOS 468 LEO 2024-11-15 01:55:21 0.0002606579 447.0 (m) PAYLOAD

Associated space launch

Chinese satellite reported for atmospheric/ocean/environmental/spatial parameter research purposes, details TBD.

CZ-6A DEB was lifted into orbit during the mission ‘Long March 6A | Yunhai 3’, on board a Long March 6A space rocket.

The launch took place on Nov. 11, 2022, 10:52 p.m. from Launch Complex 9A.

For more information about the launch, click the button.

Launch to space Long March 6A | Yunhai 3
Long March 6A | Yunhai 3

Agency: N/A

Status: Launch Successful

Launch date: Nov. 11, 2022, 10:52 p.m. UTC

Rocket: Long March 6A

Launch pad: Launch Complex 9A

Location: Taiyuan Satellite Launch Center, People's Republic of China

...

Latest news about this satellite

There are no fresh news available about this satellite. Check back as we update our databases every day.


Newsletter sign-up

Weekly statistics, charts and insights to help you stay on top of the space industry.